EIE737 ZBHH-ZUCK

Flight info

Callsign EIE737
Flight time N/A
Altitude 38100
Route IBARO9ZD IBARO W47 LOVRA W276 AVDIG W666 VINEX VINXE1
Aircraft B738/M-SDE2E3FGHIRWXY/LB1

Departure

Time N/A
Airport Hohhot Baita International Airport (ZBHH)

Arrival

Time 2026-04-26 03:48
Airport Chongqing Jiangbei International Airport (ZUCK)
Time Latitude Longitude Altitude Speed Heading
2026-04-26 02:31 36.98249 109.21003 38004 ft 488 kts 191°
2026-04-26 02:32 36.91477 109.20615 37998 ft 486 kts 191°
2026-04-26 02:32 36.84726 109.20229 38010 ft 484 kts 191°
2026-04-26 02:33 36.77998 109.19842 38005 ft 484 kts 191°
2026-04-26 02:33 36.71300 109.19458 38018 ft 484 kts 191°
2026-04-26 02:34 36.64560 109.19073 38023 ft 485 kts 191°
2026-04-26 02:34 36.57804 109.18689 38016 ft 486 kts 191°
2026-04-26 02:35 36.51034 109.18304 38013 ft 487 kts 191°
2026-04-26 02:35 36.44269 109.17921 38009 ft 486 kts 191°
2026-04-26 02:36 36.37518 109.17537 38029 ft 485 kts 191°
2026-04-26 02:36 36.30780 109.17096 38028 ft 484 kts 191°
2026-04-26 02:37 36.24072 109.16636 38033 ft 481 kts 191°
2026-04-26 02:37 36.17454 109.16187 38023 ft 479 kts 191°
2026-04-26 02:38 36.10784 109.15741 38033 ft 478 kts 191°
2026-04-26 02:38 36.04153 109.15300 38042 ft 476 kts 191°
2026-04-26 02:39 35.97540 109.14859 38027 ft 475 kts 191°
2026-04-26 02:39 35.90951 109.14421 38039 ft 474 kts 191°
2026-04-26 02:40 35.84418 109.13742 38024 ft 464 kts 200°
2026-04-26 02:40 35.81347 109.12716 38052 ft 451 kts 209°
2026-04-26 02:40 35.78401 109.11390 38036 ft 451 kts 210°
2026-04-26 02:41 35.72561 109.08703 38038 ft 451 kts 210°
2026-04-26 02:41 35.66643 109.06018 38040 ft 454 kts 209°
2026-04-26 02:42 35.60692 109.03362 38037 ft 456 kts 209°
2026-04-26 02:42 35.54714 109.00714 38043 ft 457 kts 209°
2026-04-26 02:43 35.45716 108.96739 38035 ft 459 kts 209°
2026-04-26 02:43 35.39689 108.94080 38035 ft 460 kts 209°
2026-04-26 02:44 35.33705 108.91444 38036 ft 459 kts 209°
2026-04-26 02:44 35.27689 108.88798 38033 ft 459 kts 209°
2026-04-26 02:45 35.21672 108.86155 38022 ft 459 kts 208°
2026-04-26 02:45 35.15656 108.83516 38038 ft 459 kts 208°
2026-04-26 02:46 35.09642 108.80883 38035 ft 459 kts 208°
2026-04-26 02:46 35.03627 108.78253 38032 ft 459 kts 208°
2026-04-26 02:47 34.97601 108.75622 38034 ft 460 kts 208°
2026-04-26 02:47 34.91611 108.73012 38033 ft 460 kts 208°
2026-04-26 02:48 34.85576 108.70385 38032 ft 460 kts 208°
2026-04-26 02:48 34.79546 108.67766 38030 ft 460 kts 208°
2026-04-26 02:49 34.73502 108.65144 38034 ft 460 kts 208°
2026-04-26 02:49 34.67501 108.62544 38028 ft 461 kts 208°
2026-04-26 02:50 34.61458 108.59931 38037 ft 460 kts 208°
2026-04-26 02:50 34.55418 108.57322 38042 ft 461 kts 208°
2026-04-26 02:51 34.49369 108.54714 38029 ft 461 kts 208°
2026-04-26 02:51 34.43326 108.52116 38033 ft 461 kts 208°
2026-04-26 02:52 34.38295 108.49956 38029 ft 461 kts 208°
2026-04-26 02:52 34.32251 108.47365 38032 ft 461 kts 208°
2026-04-26 02:53 34.25228 108.44357 38038 ft 460 kts 207°
2026-04-26 02:53 34.20171 108.42194 38033 ft 460 kts 207°
2026-04-26 02:54 34.14171 108.39632 38038 ft 460 kts 207°
2026-04-26 02:54 34.08145 108.37063 38044 ft 459 kts 207°
2026-04-26 02:55 34.02119 108.34497 38058 ft 459 kts 207°
2026-04-26 02:55 33.96090 108.31934 38060 ft 460 kts 207°
2026-04-26 02:56 33.90059 108.29374 38043 ft 457 kts 207°
2026-04-26 02:56 33.84112 108.26855 38074 ft 456 kts 207°
2026-04-26 02:57 33.78125 108.24320 38066 ft 455 kts 207°
2026-04-26 02:57 33.72146 108.21792 38066 ft 455 kts 207°
2026-04-26 02:58 33.66170 108.19267 38068 ft 455 kts 207°
2026-04-26 02:58 33.60185 108.16735 38064 ft 456 kts 207°
2026-04-26 02:59 33.54210 108.14211 38056 ft 456 kts 207°
2026-04-26 02:59 33.48258 108.11699 38049 ft 456 kts 207°
2026-04-26 03:00 33.42242 108.09160 38046 ft 455 kts 207°
2026-04-26 03:00 33.36246 108.06818 38055 ft 458 kts 204°
2026-04-26 03:01 33.30126 108.04692 38043 ft 458 kts 203°
2026-04-26 03:01 33.24016 108.02571 38035 ft 457 kts 204°
2026-04-26 03:02 33.17934 108.00422 38039 ft 456 kts 204°
2026-04-26 03:02 33.11851 107.98257 38028 ft 455 kts 204°
2026-04-26 03:03 33.05781 107.96095 38034 ft 455 kts 204°
2026-04-26 03:03 32.99713 107.93939 38040 ft 455 kts 204°
2026-04-26 03:04 32.93648 107.91789 38031 ft 455 kts 204°
2026-04-26 03:04 32.87579 107.89640 38035 ft 455 kts 204°
2026-04-26 03:05 32.81498 107.87489 38040 ft 455 kts 204°
2026-04-26 03:05 32.75425 107.85345 38037 ft 455 kts 203°
2026-04-26 03:06 32.69336 107.83202 38062 ft 457 kts 203°
2026-04-26 03:06 32.63262 107.81062 38029 ft 459 kts 203°
2026-04-26 03:07 32.57149 107.78912 38035 ft 457 kts 203°
2026-04-26 03:07 32.51063 107.76776 38048 ft 456 kts 203°
2026-04-26 03:08 32.44994 107.74648 38039 ft 454 kts 203°
2026-04-26 03:08 32.38943 107.72530 38035 ft 452 kts 203°
2026-04-26 03:09 32.32926 107.70425 38032 ft 450 kts 203°
2026-04-26 03:09 32.26965 107.68343 38037 ft 449 kts 203°
2026-04-26 03:10 32.20996 107.66205 38024 ft 444 kts 207°
2026-04-26 03:10 32.15687 107.62752 37981 ft 432 kts 223°
2026-04-26 03:11 32.10924 107.58457 38020 ft 433 kts 224°
2026-04-26 03:11 32.06106 107.54096 38023 ft 439 kts 223°
2026-04-26 03:12 32.01227 107.49759 38035 ft 440 kts 223°
2026-04-26 03:12 31.96334 107.45437 38026 ft 438 kts 223°
2026-04-26 03:13 31.91452 107.41131 38015 ft 437 kts 223°
2026-04-26 03:13 31.86622 107.36874 38013 ft 435 kts 222°
2026-04-26 03:14 31.81793 107.32622 38005 ft 434 kts 222°
2026-04-26 03:14 31.76695 107.28746 38013 ft 438 kts 210°
2026-04-26 03:15 31.71102 107.25889 38015 ft 438 kts 210°
2026-04-26 03:15 31.65498 107.23057 38004 ft 437 kts 210°
2026-04-26 03:16 31.59973 107.20234 37988 ft 435 kts 210°
2026-04-26 03:16 31.54424 107.17380 37994 ft 435 kts 210°
2026-04-26 03:17 31.48881 107.14526 37997 ft 435 kts 210°
2026-04-26 03:17 31.43328 107.11672 37988 ft 436 kts 209°
2026-04-26 03:18 31.37793 107.08832 37983 ft 436 kts 209°
2026-04-26 03:18 31.32220 107.05976 37980 ft 436 kts 209°
2026-04-26 03:19 31.26662 107.03132 37983 ft 436 kts 209°
2026-04-26 03:19 31.21113 107.00296 37993 ft 434 kts 208°
2026-04-26 03:20 31.15608 106.97487 37980 ft 435 kts 208°
2026-04-26 03:20 31.10049 106.94652 37984 ft 436 kts 208°
2026-04-26 03:21 31.08505 106.93866 37988 ft 437 kts 208°
2026-04-26 03:21 31.07456 106.93331 37989 ft 437 kts 208°
2026-04-26 03:22 31.01831 106.90465 37312 ft 445 kts 207°
2026-04-26 03:22 30.99005 106.89030 36718 ft 442 kts 207°
2026-04-26 03:22 30.96185 106.87600 36079 ft 441 kts 207°
2026-04-26 03:23 30.93396 106.86185 35392 ft 443 kts 207°
2026-04-26 03:23 30.90565 106.84748 34667 ft 445 kts 207°
2026-04-26 03:23 30.87719 106.83305 33897 ft 447 kts 207°
2026-04-26 03:23 30.84865 106.81858 33037 ft 448 kts 207°
2026-04-26 03:24 30.81984 106.80399 32217 ft 455 kts 206°
2026-04-26 03:24 30.79055 106.78915 31371 ft 462 kts 206°
2026-04-26 03:24 30.76092 106.77416 30462 ft 465 kts 206°
2026-04-26 03:24 30.73113 106.75911 29452 ft 468 kts 205°
2026-04-26 03:25 30.70119 106.74400 28511 ft 468 kts 205°
2026-04-26 03:25 30.67150 106.72903 27812 ft 461 kts 205°
2026-04-26 03:25 30.64222 106.71427 27117 ft 456 kts 205°
2026-04-26 03:25 30.61367 106.69989 26450 ft 451 kts 205°
2026-04-26 03:26 30.58527 106.68490 25581 ft 450 kts 207°
2026-04-26 03:26 30.55726 106.66888 24852 ft 447 kts 207°
2026-04-26 03:26 30.52964 106.65257 24155 ft 443 kts 208°
2026-04-26 03:26 30.50232 106.63632 23476 ft 440 kts 208°
2026-04-26 03:27 30.47520 106.62026 22713 ft 436 kts 207°
2026-04-26 03:27 30.44830 106.60445 22021 ft 430 kts 207°
2026-04-26 03:27 30.42192 106.58906 21362 ft 425 kts 207°
2026-04-26 03:27 30.39551 106.57371 20712 ft 419 kts 207°
2026-04-26 03:28 30.36958 106.55869 20076 ft 414 kts 207°
2026-04-26 03:28 30.34392 106.54384 19451 ft 410 kts 207°
2026-04-26 03:28 30.31850 106.52915 18826 ft 406 kts 207°
2026-04-26 03:28 30.29334 106.51461 18184 ft 402 kts 207°
2026-04-26 03:29 30.26843 106.50023 17484 ft 399 kts 207°
2026-04-26 03:29 30.24376 106.48599 16840 ft 394 kts 207°
2026-04-26 03:29 30.21967 106.47209 16222 ft 389 kts 207°
2026-04-26 03:29 30.19553 106.45817 15612 ft 385 kts 207°
2026-04-26 03:30 30.17169 106.44443 15013 ft 381 kts 207°
2026-04-26 03:30 30.14805 106.43082 14431 ft 377 kts 207°
2026-04-26 03:30 30.12465 106.41735 13846 ft 374 kts 206°
2026-04-26 03:30 30.10144 106.40399 13180 ft 372 kts 206°
2026-04-26 03:31 30.07841 106.39074 12567 ft 368 kts 206°
2026-04-26 03:31 30.05562 106.37764 11976 ft 364 kts 206°
2026-04-26 03:31 30.03310 106.36471 11398 ft 360 kts 206°
2026-04-26 03:31 30.01075 106.35187 10845 ft 357 kts 206°
2026-04-26 03:32 29.98895 106.33935 10688 ft 342 kts 206°
2026-04-26 03:32 29.96804 106.32735 10527 ft 329 kts 206°
2026-04-26 03:32 29.94794 106.31582 10380 ft 317 kts 206°
2026-04-26 03:32 29.92851 106.30468 10246 ft 306 kts 206°
2026-04-26 03:33 29.91001 106.29409 10115 ft 296 kts 206°
2026-04-26 03:33 29.89190 106.28372 9999 ft 286 kts 206°
2026-04-26 03:33 29.87437 106.27368 9848 ft 277 kts 206°
2026-04-26 03:33 29.85711 106.26380 9520 ft 277 kts 206°
2026-04-26 03:34 29.83993 106.25399 9211 ft 275 kts 206°
2026-04-26 03:34 29.82289 106.24424 8930 ft 271 kts 206°
2026-04-26 03:34 29.80626 106.23473 8823 ft 262 kts 207°
2026-04-26 03:34 29.79229 106.22196 8726 ft 255 kts 230°
2026-04-26 03:35 29.78265 106.20508 8673 ft 252 kts 238°
2026-04-26 03:35 29.77417 106.18749 8617 ft 251 kts 239°
2026-04-26 03:35 29.76506 106.17027 8537 ft 253 kts 225°
2026-04-26 03:35 29.75034 106.15943 8515 ft 255 kts 204°
2026-04-26 03:36 29.73308 106.15180 8336 ft 276 kts 190°
2026-04-26 03:36 29.71412 106.15442 8157 ft 280 kts 157°
2026-04-26 03:36 29.69783 106.16666 8041 ft 280 kts 145°
2026-04-26 03:36 29.68240 106.18036 7900 ft 280 kts 144°
2026-04-26 03:37 29.66709 106.19413 7795 ft 279 kts 144°
2026-04-26 03:37 29.65174 106.20790 7685 ft 280 kts 144°
2026-04-26 03:37 29.63651 106.22147 7608 ft 279 kts 144°
2026-04-26 03:37 29.62123 106.23502 7550 ft 278 kts 144°
2026-04-26 03:38 29.60588 106.24855 7446 ft 278 kts 144°
2026-04-26 03:38 29.59051 106.26207 7338 ft 277 kts 144°
2026-04-26 03:38 29.57518 106.27554 7249 ft 277 kts 144°
2026-04-26 03:38 29.55985 106.28897 7139 ft 278 kts 145°
2026-04-26 03:39 29.54450 106.30244 7027 ft 278 kts 145°
2026-04-26 03:39 29.52909 106.31594 6921 ft 279 kts 145°
2026-04-26 03:39 29.51361 106.32950 6819 ft 280 kts 144°
2026-04-26 03:39 29.49808 106.34309 6686 ft 281 kts 145°
2026-04-26 03:40 29.48254 106.35668 6586 ft 281 kts 145°
2026-04-26 03:40 29.46712 106.37016 6480 ft 282 kts 145°
2026-04-26 03:40 29.45150 106.38382 6358 ft 281 kts 145°
2026-04-26 03:40 29.43716 106.39875 6220 ft 279 kts 128°
2026-04-26 03:41 29.42982 106.41895 6110 ft 275 kts 100°
2026-04-26 03:41 29.43054 106.44061 6006 ft 272 kts 78°
2026-04-26 03:41 29.43634 106.46127 5931 ft 273 kts 72°
2026-04-26 03:41 29.44263 106.48188 5814 ft 272 kts 72°
2026-04-26 03:42 29.44869 106.50188 5689 ft 261 kts 73°
2026-04-26 03:42 29.45451 106.52140 5586 ft 256 kts 74°
2026-04-26 03:42 29.46017 106.54062 5530 ft 252 kts 74°
2026-04-26 03:42 29.46384 106.55306 5477 ft 245 kts 74°
2026-04-26 03:43 29.47583 106.57378 5305 ft 239 kts 34°
2026-04-26 03:43 29.49077 106.58192 5231 ft 238 kts 23°
2026-04-26 03:43 29.50635 106.58843 5179 ft 239 kts 19°
2026-04-26 03:43 29.52228 106.59420 5094 ft 237 kts 17°
2026-04-26 03:44 29.53806 106.59969 4821 ft 236 kts 18°
2026-04-26 03:44 29.55327 106.60504 4560 ft 222 kts 18°
2026-04-26 03:44 29.56289 106.60840 4333 ft 214 kts 19°
2026-04-26 03:44 29.57680 106.61329 4074 ft 207 kts 19°
2026-04-26 03:45 29.59049 106.61809 3837 ft 205 kts 18°
2026-04-26 03:45 29.60390 106.62275 3584 ft 196 kts 19°
2026-04-26 03:45 29.61645 106.62715 3348 ft 181 kts 20°
2026-04-26 03:45 29.62825 106.63132 3095 ft 175 kts 20°
2026-04-26 03:46 29.63989 106.63480 2902 ft 174 kts
2026-04-26 03:46 29.65217 106.63423 2661 ft 176 kts 356°
2026-04-26 03:46 29.66377 106.63179 2462 ft 159 kts 351°
2026-04-26 03:47 29.68316 106.63034 2060 ft 132 kts 24°
2026-04-26 03:47 29.69172 106.63293 1830 ft 128 kts 10°
2026-04-26 03:47 29.70050 106.63515 1531 ft 131 kts 18°
2026-04-26 03:47 29.70898 106.63803 1354 ft 121 kts 19°
2026-04-26 03:48 29.71510 106.64014 1346 ft 39 kts 17°
2026-04-26 03:48 29.71719 106.64086 1348 ft 24 kts 18°
2026-04-26 03:48 29.71806 106.64026 1352 ft 16 kts 289°
2026-04-26 03:48 29.71861 106.63924 1351 ft 16 kts 352°
2026-04-26 03:49 29.71965 106.63951 1353 ft 15 kts 17°
2026-04-26 03:49 29.72063 106.63985 1354 ft 14 kts 17°
2026-04-26 03:49 29.72157 106.64017 1353 ft 14 kts 16°
2026-04-26 03:49 29.72237 106.64059 1354 ft 11 kts 39°
2026-04-26 03:50 29.72241 106.64137 1351 ft 9 kts 104°
2026-04-26 03:50 29.72239 106.64146 1352 ft 0 kts 103°
2026-04-26 03:51 29.72232 106.64180 1351 ft 11 kts 103°
2026-04-26 03:51 29.72285 106.64295 1348 ft 24 kts 40°
2026-04-26 03:51 29.72413 106.64423 1346 ft 23 kts 42°
2026-04-26 03:51 29.72517 106.64557 1347 ft 23 kts 74°
2026-04-26 03:52 29.72497 106.64683 1345 ft 15 kts 107°
2026-04-26 03:52 29.72467 106.64800 1349 ft 16 kts 106°
2026-04-26 03:52 29.72429 106.64915 1347 ft 15 kts 139°
2026-04-26 03:52 29.72330 106.64909 1346 ft 15 kts 195°
2026-04-26 03:53 29.72221 106.64875 1345 ft 19 kts 195°
2026-04-26 03:53 29.72117 106.64874 1343 ft 13 kts 124°
2026-04-26 03:53 29.72094 106.64955 1347 ft 8 kts 107°
2026-04-26 03:53 29.72093 106.64959 1346 ft 1 kts 107°
2026-04-26 03:54 29.72062 106.64989 1348 ft 7 kts 185°
2026-04-26 03:54 29.72027 106.64977 1348 ft 4 kts 196°
2026-04-26 03:54 29.72000 106.64968 1349 ft 4 kts 195°
2026-04-26 03:54 29.71951 106.64953 1350 ft 13 kts 195°
2026-04-26 03:55 29.71844 106.64923 1350 ft 16 kts 184°
2026-04-26 03:55 29.71800 106.64981 1348 ft 0 kts 105°